Location: Newark
(48.2181°N, 17.1299°E)
Time: 23:11:41
(UTC+00:00)

Envisat - Visible Passes

Search period start: 11 November 2019 00:00
Search period end: 21 November 2019 00:00
Orbit: 764 x 766 km, 98.1° (Epoch: 11 November)

Date Brightness Start Highest point End Pass type
(mag) Time Alt. Az. Time Alt. Az. Time Alt. Az.
11 Nov 6.2 04:19:50 10° ENE 04:22:06 13° E 04:24:22 10° ESE visible
11 Nov 3.9 17:15:06 10° S 17:20:01 50° W 17:24:59 10° NNW visible
12 Nov 2.9 16:38:07 10° SSE 16:43:12 81° ENE 16:48:19 10° NNW visible
12 Nov 5.9 18:20:01 10° WSW 18:22:52 15° W 18:25:44 10° NW visible
13 Nov 5.8 04:44:03 10° NE 04:47:56 22° E 04:51:48 10° SE visible
13 Nov 3.4 16:01:51 10° SE 16:06:34 40° ENE 16:11:18 10° N visible
13 Nov 4.9 17:41:15 10° SSW 17:45:41 30° W 17:50:10 10° NNW visible
14 Nov 3.5 17:03:42 10° S 17:08:43 62° W 17:13:47 10° NNW visible
15 Nov 4.9 05:09:00 10° NNE 05:13:40 35° E 05:18:18 10° SSE visible
15 Nov 2.9 16:26:55 10° SSE 16:31:57 66° ENE 16:37:00 10° N visible
15 Nov 5.6 18:07:57 10° SW 18:11:27 19° W 18:14:58 10° NW visible
16 Nov 6.0 04:33:11 10° NE 04:36:32 17° E 04:39:53 10° SE visible
16 Nov 3.6 15:50:51 10° SE 15:55:22 33° ENE 15:59:54 10° N visible
16 Nov 4.5 17:29:39 10° SSW 17:34:20 37° W 17:39:04 10° NNW visible
17 Nov 3.1 16:52:21 10° S 16:57:25 77° WSW 17:02:33 10° NNW visible
17 Nov 6.2 18:36:07 10° W 18:37:18 11° W 18:38:31 10° WNW visible
18 Nov 5.3 04:57:54 10° NE 05:02:19 29° E 05:06:41 10° SSE visible
18 Nov 3.1 16:15:47 10° SE 16:20:42 53° ENE 16:25:40 10° N visible
18 Nov 5.3 17:56:05 10° SW 18:00:03 23° W 18:04:03 10° NW visible
19 Nov 6.1 04:22:29 10° NE 04:25:07 14° E 04:27:45 10° ESE visible
19 Nov 3.9 15:39:56 10° ESE 15:44:11 28° ENE 15:48:27 10° N visible
19 Nov 4.1 17:18:07 10° S 17:23:00 46° W 17:27:55 10° NNW visible
20 Nov 4.3 05:23:03 10° NNE 05:27:59 47° E 05:32:51 10° S visible
20 Nov 2.9 16:41:04 10° SSE 16:46:09 87° ENE 16:51:16 10° NNW visible
20 Nov 6.0 18:23:21 10° WSW 18:25:52 14° W 18:28:25 10° WNW visible
